Tracking 31027 objects as of 19-Jul-2025
HD Live streaming from Space Station
objects crossing your sky now

STARLINK-30571

Track STARLINK-30571 now!
10-day predictions
STARLINK-30571 is classified as:


NORAD ID: 58066
Int'l Code: 2023-158R
Perigee: 565.3 km
Apogee: 567.2 km
Inclination: 43.0 °
Period: 95.8 minutes
Semi major axis: 6937 km
RCS: Unknown
Launch date: October 13, 2023
Source: United States (US)
Launch site: AIR FORCE EASTERN TEST RANGE (AFETR)
Your satellite tracking list
COSMOS 1408 DEB
Track 1 satellite(s)




NASA's NSSDC Master Catalog

Two Line Element Set (TLE):
1 58066U 23158R   25199.40607068 -.00002230  00000-0 -15011-3 0  9991
2 58066  43.0022 222.9662 0001372 273.0346  87.0339 15.02525968 98296
Source of the keplerian elements: AFSPC